Change the Weather History Date:

Friday, September 5, 2014

  Actual Average Record
Temperature  
Mean Temperature 80 °F 76 °F  
Max Temperature 89 °F 86 °F 97 °F (1998)
Min Temperature 70 °F 67 °F 54 °F (2010)
Degree Days  
Heating Degree Days 0 0  
Month to date heating degree days 0 0  
Since 1 July heating degree days 0 0  
Cooling Degree Days 15 11  
Month to date cooling degree days 77 58  
Year to date cooling degree days 1481 1515  
Growing Degree Days 28 (Base 50)    
Moisture  
Dew Point 69 °F    
Average Humidity 73    
Maximum Humidity 97    
Minimum Humidity 48    
Precipitation  
Precipitation 0.00 in 0.12 in 0.66 in (2011)
Month to date precipitation 2.11 0.51  
Year to date precipitation 32.32 37.09  
Sea Level Pressure  
Sea Level Pressure 30.12 in    
Wind  
Wind Speed 1 mph (East)    
Max Wind Speed 9 mph    
Max Gust Speed 13 mph    
Visibility 7 miles    
Events      
T = Trace of Precipitation, MM = Missing Value Source: NWS Daily Summary

Daily Weather History Graph

Daily Weather History Graph

Search for Another Location

Airport or City:

Trip Planner

Search our weather history database for the weather conditions in past years. The results will help you decide how hot, cold, wet, or windy it might be!

Date:

Astronomy

Sep. 05, 2014 Rise Set
Actual Time 7:13 AM EDT 7:57 PM EDT
Civil Twilight 6:48 AM EDT 8:22 PM EDT
Nautical Twilight 6:18 AM EDT 8:52 PM EDT
Astronomical Twilight 5:47 AM EDT 9:23 PM EDT
Moon 5:19 PM EDT (9/5) 3:14 AM EDT (9/5)
Length of Visible Light 13h 34m
Length of Day
12h 43m
Waxing Gibbous, 83% of the Moon is Illuminated
Sep 5
Waxing Gibbous
Sep 8
Full
Sep 15
Last Quarter
Sep 24
New
Oct 1
First Quarter

Hourly Weather History & Observations

Time (EDT) Temp. Heat Index Dew Point Humidity Pressure Visibility Wind Dir Wind Speed Gust Speed Precip Events Conditions
12:53 AM 73.0 °F - 70.0 °F 90% 30.11 in 8.0 mi Calm Calm - N/A   Clear
1:53 AM 73.0 °F - 70.0 °F 90% 30.09 in 7.0 mi Calm Calm - N/A   Clear
2:53 AM 72.0 °F - 69.1 °F 91% 30.09 in 8.0 mi Calm Calm - N/A   Clear
3:47 AM 71.6 °F - 69.8 °F 94% 30.14 in 1.8 mi Calm Calm - N/A   Clear
3:53 AM 71.1 °F - 69.1 °F 93% 30.10 in 1.5 mi Calm Calm - N/A   Clear
3:56 AM 71.6 °F - 69.8 °F 94% 30.14 in 3.0 mi Calm Calm - N/A   Clear
4:53 AM 70.0 °F - 68.0 °F 93% 30.11 in 5.0 mi Calm Calm - N/A   Partly Cloudy
5:06 AM 71.6 °F - 68.0 °F 88% 30.15 in 6.0 mi Calm Calm - N/A   Mostly Cloudy
5:53 AM 70.0 °F - 68.0 °F 93% 30.12 in 7.0 mi Calm Calm - N/A   Scattered Clouds
6:04 AM 71.6 °F - 68.0 °F 88% 30.16 in 7.0 mi Calm Calm - N/A   Mostly Cloudy
6:15 AM 71.6 °F - 68.0 °F 88% 30.16 in 5.0 mi Calm Calm - N/A   Partly Cloudy
6:44 AM 71.6 °F - 69.8 °F 94% 30.17 in 6.0 mi Calm Calm - N/A   Partly Cloudy
6:53 AM 71.1 °F - 69.1 °F 93% 30.13 in 5.0 mi Calm Calm - N/A   Partly Cloudy
7:25 AM 71.6 °F - 69.8 °F 94% 30.19 in 2.0 mi Calm Calm - N/A   Mostly Cloudy
7:53 AM 71.1 °F - 69.1 °F 93% 30.15 in 2.0 mi Calm Calm - N/A   Mostly Cloudy
8:03 AM 71.6 °F - 69.8 °F 94% 30.19 in 1.0 mi Calm Calm - N/A   Mist
8:44 AM 71.6 °F - 69.8 °F 94% 30.20 in 1.5 mi Calm Calm - N/A   Overcast
8:53 AM 73.0 °F - 70.0 °F 90% 30.17 in 4.0 mi Calm Calm - N/A   Overcast
9:35 AM 73.4 °F - 69.8 °F 88% 30.21 in 6.0 mi ENE 3.5 mph - N/A   Overcast
9:53 AM 75.0 °F - 70.0 °F 84% 30.18 in 7.0 mi ENE 3.5 mph - N/A   Overcast
10:39 AM 78.8 °F - 71.6 °F 78% 30.22 in 9.0 mi East 3.5 mph - N/A   Mostly Cloudy
10:53 AM 79.0 °F - 71.1 °F 77% 30.17 in 9.0 mi Variable 3.5 mph - N/A   Mostly Cloudy
11:53 AM 82.0 °F 86.3 °F 71.1 °F 69% 30.15 in 10.0 mi Variable 3.5 mph - N/A   Mostly Cloudy
12:00 PM 82.4 °F 87.2 °F 71.6 °F 70% 30.21 in 10.0 mi Variable 3.5 mph - N/A   Mostly Cloudy
12:53 PM 84.0 °F 87.8 °F 69.1 °F 61% 30.13 in 10.0 mi Variable 5.8 mph - N/A   Mostly Cloudy
1:00 PM 84.2 °F 88.4 °F 69.8 °F 62% 30.18 in 10.0 mi Variable 3.5 mph - N/A   Scattered Clouds
1:53 PM 86.0 °F 90.1 °F 69.1 °F 57% 30.10 in 10.0 mi Variable 4.6 mph - N/A   Clear
2:53 PM 86.0 °F 90.1 °F 69.1 °F 57% 30.07 in 10.0 mi SE 3.5 mph - N/A   Mostly Cloudy
3:53 PM 87.1 °F 89.9 °F 66.9 °F 51% 30.04 in 10.0 mi Variable 3.5 mph - N/A   Partly Cloudy
4:53 PM 87.1 °F 89.9 °F 66.9 °F 51% 30.02 in 10.0 mi Variable 3.5 mph - N/A   Clear
5:53 PM 87.8 °F 90.4 °F 66.2 °F 49% 30.07 in 10.0 mi Calm Calm - N/A   Clear
6:53 PM 86.0 °F 87.6 °F 64.9 °F 49% 30.02 in 10.0 mi East 3.5 mph - N/A   Clear
7:53 PM 82.0 °F 85.5 °F 69.1 °F 65% 30.02 in 10.0 mi Calm Calm - N/A   Clear
8:53 PM 77.0 °F - 70.0 °F 79% 30.05 in 10.0 mi Calm Calm - N/A   Clear
9:53 PM 78.1 °F - 70.0 °F 76% 30.05 in 10.0 mi Calm Calm - N/A   Clear
10:53 PM 75.0 °F - 71.1 °F 87% 30.06 in 10.0 mi Calm Calm - N/A   Clear
11:53 PM 75.0 °F - 70.0 °F 84% 30.06 in 10.0 mi Calm Calm - N/A   Clear